Simultaneous Nadir Overpasses (SNOs) Predictions

Prediction of SNOs between GOES-16 and LANDSAT-8 Satellite Orbit:

Table of predicted SNOs for the next 14.0 days since TLE Epoch: 1/13/2024
Index Date Time (GOES-16) GOES-16 Lat,Lon LANDSAT-8 Lat,Lon Distance(km) Time Diff (sec)
1 01/13/2024 15:15:23 -0.00, -75.22 0.04, -75.40 20.36 80
2 01/15/2024 15:00:32 0.00, -75.24 -0.61, -72.45 317.36 80
3 01/16/2024 03:24:36 -0.01, -75.22 -0.50, -77.64 274.71 80
4 01/18/2024 03:09:44 -0.01, -75.24 0.12, -74.68 63.88 80
5 01/20/2024 02:57:32 0.00, -75.27 0.76, -71.73 402.90 80
6 01/20/2024 15:21:27 0.00, -75.30 0.36, -76.88 180.28 80
7 01/22/2024 15:06:35 -0.01, -75.33 -0.30, -73.92 159.32 80
8 01/23/2024 03:30:39 0.01, -75.31 -0.78, -79.12 432.14 80
9 01/24/2024 14:57:02 -0.02, -75.36 -0.93, -70.96 499.60 80
10 01/25/2024 03:18:26 0.02, -75.35 -0.15, -76.16 91.62 80
